Location: Birkenwerder
(52.6919°N, 13.2774°E)
Time: 09:38:14
(UTC+00:00)

Cosmos 1709 Rocket - Pass Details

Date: 07 June 2020
Orbit: 949 x 1001 km, 82.9° (Epoch: 11 July)

Event Time Altitude Azimuth Distance (km) Brightness Sun altitude
Exits shadow 00:05:04 19° 193° (SSW) 2,124 5.1 -13.4°
Maximum altitude 00:09:42 83° 280° (W) 975 4.0 -13.3°
Drops below altitude 10° 00:15:58 10° 9° (N) 2,724 7.8 -13.0°
Sets 00:18:30 0° 11° (N) 3,683 9.0 -12.9°
